INTELSAT 34 (IS-34)

Last updated on Sun Apr 12 2026 00:02:53 GMT+0000 (Coordinated Universal Time)

1 40874U 15039A 26101.01059494 -.00000284 00000+0 00000+0 0 9996 2 40874 0.0228 274.3248 0000178 284.2571 308.9788 1.00273725 38957
UTC large
Height (km)
Speed (km/s)
/
Latitude / Longitude
Inclination (degrees)
Orbital Period (minutes)
Azimuth
Elevation
Range (km)
Doppler Factor

Next 0 passes for location: London (51.5072 / 0.1276)

Sorry there are no passes over London.
INTELSAT 34 (IS-34)